When you browse on this site, cookies collect data to enhance your experience and personalize the content and advertising you see.
Visit our Privacy Policy to learn more. By continuing to use the site, you agree to this use of cookies and data.

Meteo pe oră la Saga

Astăzi, 9 Iulie, Joi

Timp Temperatura Precipitaţii Vânt Presiune Umiditate
00:00 +25°C° 0 mm 0 m/s 753 mmHg 81%
01:00 +27°C° 0.1 mm 1 m/s 752 mmHg 82%
02:00 +27°C° 0.1 mm 1 m/s 752 mmHg 83%
03:00 +26°C° 0 mm 2 m/s 753 mmHg 83%
04:00 +26°C° 0.1 mm 2 m/s 753 mmHg 84%
05:00 +26°C° 0.1 mm 2 m/s 753 mmHg 85%
06:00 +26°C° 0.1 mm 2 m/s 753 mmHg 86%
07:00 +26°C° 2.5 mm 2 m/s 753 mmHg 87%
08:00 +26°C° 2.5 mm 2 m/s 753 mmHg 89%
09:00 +27°C° 0 mm 2 m/s 753 mmHg 90%
10:00 +26°C° 3.2 mm 2 m/s 753 mmHg 90%
11:00 +26°C° 3.2 mm 2 m/s 753 mmHg 91%
12:00 +26°C° 3.2 mm 2 m/s 753 mmHg 91%
13:00 +26°C° 5.6 mm 3 m/s 752 mmHg 92%
14:00 +26°C° 5.6 mm 3 m/s 752 mmHg 93%
15:00 +26°C° 0 mm 4 m/s 752 mmHg 95%
16:00 +26°C° 2.7 mm 4 m/s 752 mmHg 94%
17:00 +26°C° 2.7 mm 4 m/s 752 mmHg 93%
18:00 +26°C° 2.7 mm 4 m/s 752 mmHg 93%
19:00 +26°C° 11.2 mm 4 m/s 752 mmHg 93%
20:00 +26°C° 11.2 mm 5 m/s 753 mmHg 93%
21:00 +26°C° 11.2 mm 5 m/s 753 mmHg 92%
22:00 +26°C° 6.7 mm 5 m/s 754 mmHg 93%
23:00 +26°C° 6.7 mm 4 m/s 754 mmHg 93%

Mâine, 10 Iulie, Vineri

Timp Temperatura Precipitaţii Vânt Presiune Umiditate
00:00 +26°C° 6.7 mm 4 m/s 754 mmHg 94%
01:00 +26°C° 0.6 mm 4 m/s 754 mmHg 93%
02:00 +26°C° 0.6 mm 4 m/s 754 mmHg 91%
03:00 +26°C° 0.6 mm 4 m/s 754 mmHg 90%
04:00 +26°C° 0.2 mm 4 m/s 754 mmHg 90%
05:00 +26°C° 0.2 mm 4 m/s 754 mmHg 89%
06:00 +26°C° 0.2 mm 4 m/s 754 mmHg 89%
07:00 +26°C° 1.3 mm 4 m/s 754 mmHg 90%
08:00 +25°C° 1.3 mm 4 m/s 754 mmHg 90%
09:00 +25°C° 1.3 mm 4 m/s 754 mmHg 91%
10:00 +25°C° 1 mm 4 m/s 754 mmHg 90%
11:00 +26°C° 1 mm 4 m/s 754 mmHg 89%
12:00 +26°C° 1 mm 4 m/s 754 mmHg 89%
13:00 +26°C° 6.3 mm 5 m/s 753 mmHg 90%
14:00 +26°C° 6.3 mm 6 m/s 752 mmHg 92%
15:00 +26°C° 6.3 mm 6 m/s 752 mmHg 94%
16:00 +26°C° 6.2 mm 7 m/s 752 mmHg 94%
17:00 +26°C° 6.2 mm 7 m/s 752 mmHg 94%
18:00 +26°C° 6.2 mm 7 m/s 752 mmHg 94%
19:00 +26°C° 1.8 mm 7 m/s 752 mmHg 93%
20:00 +26°C° 1.8 mm 6 m/s 752 mmHg 93%
21:00 +26°C° 1.8 mm 6 m/s 752 mmHg 93%
22:00 +26°C° 1.3 mm 6 m/s 752 mmHg 94%
23:00 +26°C° 1.3 mm 5 m/s 752 mmHg 94%

Poimâine, 11 Iulie, Sâmbătă

Timp Temperatura Precipitaţii Vânt Presiune Umiditate
00:00 +27°C° 1.3 mm 5 m/s 752 mmHg 94%
01:00 +27°C° 0.6 mm 4 m/s 752 mmHg 94%
02:00 +27°C° 0.6 mm 4 m/s 752 mmHg 94%
03:00 +27°C° 0.6 mm 4 m/s 752 mmHg 93%
04:00 +27°C° 0.1 mm 3 m/s 752 mmHg 92%
05:00 +26°C° 0.1 mm 3 m/s 752 mmHg 91%
06:00 +26°C° 0.1 mm 3 m/s 753 mmHg 89%
07:00 +27°C° 0 mm 3 m/s 753 mmHg 86%
08:00 +27°C° 0 mm 3 m/s 753 mmHg 84%
09:00 +28°C° 0 mm 3 m/s 753 mmHg 81%
10:00 +29°C° 0 mm 3 m/s 754 mmHg 77%
11:00 +29°C° 0 mm 3 m/s 754 mmHg 73%
12:00 +30°C° 0 mm 4 m/s 754 mmHg 70%
13:00 +30°C° 0 mm 4 m/s 754 mmHg 69%
14:00 +30°C° 0 mm 4 m/s 753 mmHg 69%
15:00 +32°C° 0 mm 5 m/s 753 mmHg 69%
16:00 +30°C° 0.2 mm 4 m/s 753 mmHg 74%
17:00 +29°C° 0.2 mm 4 m/s 754 mmHg 79%
18:00 +28°C° 0.2 mm 3 m/s 754 mmHg 84%
19:00 +28°C° 0.3 mm 3 m/s 754 mmHg 85%
20:00 +28°C° 0.3 mm 2 m/s 755 mmHg 87%
21:00 +27°C° 0.3 mm 2 m/s 755 mmHg 89%
22:00 +27°C° 0.4 mm 1 m/s 755 mmHg 89%
23:00 +27°C° 0.4 mm 1 m/s 755 mmHg 90%

12 Iulie, Duminică

Timp Temperatura Precipitaţii Vânt Presiune Umiditate
00:00 +27°C° 0.4 mm 1 m/s 755 mmHg 90%
01:00 +26°C° 0.1 mm 1 m/s 755 mmHg 90%
02:00 +26°C° 0.1 mm 1 m/s 755 mmHg 90%
03:00 +26°C° 0.1 mm 1 m/s 755 mmHg 90%
04:00 +26°C° 0.1 mm 1 m/s 755 mmHg 89%
05:00 +24°C° 0.1 mm 0 m/s 755 mmHg 89%
06:00 +24°C° 0.1 mm 0 m/s 755 mmHg 88%
07:00 +24°C° 0.2 mm 0 m/s 755 mmHg 88%
08:00 +24°C° 0.2 mm 0 m/s 755 mmHg 87%
09:00 +26°C° 0.2 mm 1 m/s 756 mmHg 86%
10:00 +26°C° 1.2 mm 1 m/s 755 mmHg 88%
11:00 +26°C° 1.2 mm 1 m/s 755 mmHg 90%
12:00 +26°C° 1.2 mm 2 m/s 755 mmHg 92%
13:00 +26°C° 5.6 mm 2 m/s 755 mmHg 93%
14:00 +26°C° 5.6 mm 2 m/s 754 mmHg 94%
15:00 +26°C° 5.6 mm 2 m/s 754 mmHg 96%
16:00 +26°C° 5.6 mm 3 m/s 754 mmHg 95%
17:00 +26°C° 5.6 mm 4 m/s 754 mmHg 94%
18:00 +26°C° 5.6 mm 4 m/s 754 mmHg 93%
19:00 +26°C° 2.4 mm 4 m/s 754 mmHg 93%
20:00 +26°C° 2.4 mm 4 m/s 754 mmHg 93%
21:00 +26°C° 2.4 mm 4 m/s 754 mmHg 93%
22:00 +26°C° 1.5 mm 3 m/s 754 mmHg 92%
23:00 +26°C° 1.5 mm 3 m/s 753 mmHg 92%

13 Iulie, Luni

Timp Temperatura Precipitaţii Vânt Presiune Umiditate
00:00 +26°C° 1.5 mm 2 m/s 753 mmHg 92%
01:00 +26°C° 0.5 mm 2 m/s 753 mmHg 92%
02:00 +26°C° 0.5 mm 2 m/s 752 mmHg 92%
03:00 +26°C° 0.5 mm 3 m/s 752 mmHg 93%
04:00 +26°C° 0.4 mm 3 m/s 752 mmHg 93%
05:00 +27°C° 0.4 mm 3 m/s 751 mmHg 93%
06:00 +27°C° 0.4 mm 3 m/s 751 mmHg 93%
07:00 +27°C° 1.2 mm 5 m/s 750 mmHg 92%
08:00 +28°C° 1.2 mm 6 m/s 750 mmHg 92%
09:00 +28°C° 1.2 mm 7 m/s 750 mmHg 91%
10:00 +28°C° 2.7 mm 7 m/s 750 mmHg 91%
11:00 +28°C° 2.7 mm 7 m/s 750 mmHg 92%
12:00 +28°C° 2.7 mm 7 m/s 750 mmHg 92%
13:00 +28°C° 1.1 mm 7 m/s 750 mmHg 91%
14:00 +28°C° 1.1 mm 7 m/s 750 mmHg 91%
15:00 +28°C° 1.1 mm 7 m/s 749 mmHg 90%
16:00 +28°C° 2.3 mm 7 m/s 749 mmHg 91%
17:00 +28°C° 2.3 mm 6 m/s 749 mmHg 91%
18:00 +28°C° 2.3 mm 6 m/s 749 mmHg 91%
19:00 +28°C° 1.5 mm 6 m/s 750 mmHg 92%
20:00 +28°C° 1.5 mm 5 m/s 750 mmHg 92%
21:00 +28°C° 1.5 mm 5 m/s 750 mmHg 92%
22:00 +27°C° 1.7 mm 5 m/s 750 mmHg 92%
23:00 +27°C° 1.7 mm 4 m/s 750 mmHg 92%

14 Iulie, Marţi

Timp Temperatura Precipitaţii Vânt Presiune Umiditate
00:00 +27°C° 1.7 mm 3 m/s 750 mmHg 92%
01:00 +27°C° 0.8 mm 3 m/s 750 mmHg 91%
02:00 +26°C° 0.8 mm 3 m/s 750 mmHg 89%
03:00 +26°C° 0.8 mm 3 m/s 750 mmHg 88%
04:00 +26°C° 0.1 mm 3 m/s 750 mmHg 87%
05:00 +26°C° 0.1 mm 2 m/s 750 mmHg 86%
06:00 +26°C° 0.1 mm 2 m/s 750 mmHg 85%
07:00 +26°C° 0.1 mm 2 m/s 750 mmHg 82%
08:00 +27°C° 0.1 mm 2 m/s 750 mmHg 79%
09:00 +27°C° 0.1 mm 2 m/s 751 mmHg 75%
10:00 +28°C° 0.2 mm 3 m/s 751 mmHg 73%
11:00 +29°C° 0.2 mm 4 m/s 750 mmHg 71%
12:00 +29°C° 0.2 mm 4 m/s 750 mmHg 69%
13:00 +29°C° 0.6 mm 4 m/s 750 mmHg 71%
14:00 +29°C° 0.6 mm 4 m/s 750 mmHg 72%
15:00 +29°C° 0.6 mm 4 m/s 750 mmHg 74%
16:00 +28°C° 0.2 mm 4 m/s 750 mmHg 74%
17:00 +28°C° 0.2 mm 4 m/s 750 mmHg 74%
18:00 +28°C° 0.2 mm 4 m/s 750 mmHg 74%
19:00 +27°C° 0.1 mm 4 m/s 750 mmHg 76%
20:00 +26°C° 0.1 mm 3 m/s 750 mmHg 78%
21:00 +25°C° 0.1 mm 3 m/s 751 mmHg 80%
22:00 +25°C° 0.1 mm 3 m/s 751 mmHg 81%
23:00 +25°C° 0.1 mm 2 m/s 750 mmHg 81%
Arată mai mult